| time (UTC) | temp F | wind direction | speed MPH | gust MPH | rain 1hr in | rain 24hr in | rain mn in | humidity % | barometer mb |
| 20260503223603 | 59 | 326 | 0.0 | 9.0 | 0.00 | 0.00 | 0.00 | 34 | 1010.1 |
| 20260503222603 | 59 | 257 | 7.0 | 15.0 | 0.00 | 0.00 | 0.00 | 32 | 1010.2 |
| 20260503221603 | 59 | 315 | 1.0 | 12.0 | 0.00 | 0.00 | 0.00 | 34 | 1010.1 |
| 20260503220603 | 60 | 307 | 5.0 | 11.0 | 0.00 | 0.00 | 0.00 | 32 | 1010.2 |
| 20260503215603 | 60 | 286 | 5.0 | 9.0 | 0.00 | 0.00 | 0.00 | 32 | 1010.3 |
| 20260503214603 | 59 | 282 | 5.0 | 13.0 | 0.00 | 0.00 | 0.00 | 31 | 1010.1 |
| 20260503213603 | 59 | 324 | 4.0 | 9.0 | 0.00 | 0.00 | 0.00 | 31 | 1010.1 |
| 20260503212603 | 59 | 285 | 3.0 | 14.0 | 0.00 | 0.00 | 0.00 | 34 | 1010.1 |
| 20260503211603 | 58 | 339 | 3.0 | 12.0 | 0.00 | 0.00 | 0.00 | 33 | 1010.2 |
| 20260503210602 | 58 | 274 | 8.0 | 13.0 | 0.00 | 0.00 | 0.00 | 32 | 1010.1 |
| 20260503205603 | 58 | 236 | 5.0 | 18.0 | 0.00 | 0.00 | 0.00 | 34 | 1010.0 |
| 20260503204603 | 58 | 275 | 7.0 | 15.0 | 0.00 | 0.00 | 0.00 | 32 | 1010.3 |
| 20260503203624 | 57 | 252 | 4.0 | 13.0 | 0.00 | 0.00 | 0.00 | 34 | 1010.1 |
| 20260503202603 | 57 | 329 | 5.0 | 14.0 | 0.00 | 0.00 | 0.00 | 34 | 1010.3 |
| 20260503195603 | 57 | 343 | 3.0 | 15.0 | 0.00 | 0.00 | 0.00 | 36 | 1010.3 |
| 20260503194603 | 58 | 298 | 7.0 | 16.0 | 0.00 | 0.00 | 0.00 | 36 | 1010.4 |
| 20260503193602 | 57 | 329 | 4.0 | 16.0 | 0.00 | 0.00 | 0.00 | 34 | 1010.4 |
| 20260503192603 | 57 | 282 | 7.0 | 16.0 | 0.00 | 0.00 | 0.00 | 36 | 1010.7 |
| 20260503190647 | 56 | 4 | 6.0 | 15.0 | 0.00 | 0.00 | 0.00 | 37 | 1010.8 |
| 20260503185604 | 57 | 275 | 6.0 | 15.0 | 0.00 | 0.00 | 0.00 | 35 | 1010.7 |
| 20260503184625 | 56 | 268 | 7.0 | 15.0 | 0.00 | 0.00 | 0.00 | 40 | 1010.6 |
| 20260503183604 | 55 | 338 | 6.0 | 14.0 | 0.00 | 0.00 | 0.00 | 38 | 1010.9 |
| 20260503182604 | 55 | 302 | 7.0 | 12.0 | 0.00 | 0.00 | 0.00 | 38 | 1011.0 |
| 20260503181625 | 55 | 329 | 5.0 | 16.0 | 0.00 | 0.00 | 0.00 | 38 | 1011.2 |
| 20260503180625 | 55 | 323 | 6.0 | 20.0 | 0.00 | 0.00 | 0.00 | 38 | 1011.1 |
| 20260503175604 | 54 | 337 | 4.0 | 13.0 | 0.00 | 0.00 | 0.00 | 40 | 1011.2 |
| 20260503174604 | 55 | 302 | 8.0 | 16.0 | 0.00 | 0.00 | 0.00 | 40 | 1011.3 |
| 20260503173604 | 54 | 287 | 7.0 | 14.0 | 0.00 | 0.00 | 0.00 | 42 | 1011.4 |
| 20260503172604 | 53 | 311 | 6.0 | 14.0 | 0.00 | 0.00 | 0.00 | 41 | 1011.6 |
| 20260503171604 | 52 | 277 | 6.0 | 14.0 | 0.00 | 0.00 | 0.00 | 44 | 1011.5 |
| 20260503170604 | 53 | 335 | 7.0 | 14.0 | 0.00 | 0.00 | 0.00 | 44 | 1011.9 |
| 20260503150627 | 52 | 334 | 6.0 | 14.0 | 0.00 | 0.00 | 0.00 | 40 | 1012.2 |
| 20260503130625 | 48 | 338 | 4.0 | 11.0 | 0.00 | 0.00 | 0.00 | 58 | 1012.1 |
| 20260503110604 | 43 | 345 | 1.0 | 11.0 | 0.00 | 0.00 | 0.00 | 65 | 1011.7 |
| 20260503081604 | 45 | 343 | 1.0 | 9.0 | 0.00 | 0.01 | 0.00 | 60 | 1010.7 |
| 20260503080604 | 45 | 348 | 2.0 | 6.0 | 0.00 | 0.01 | 0.00 | 60 | 1010.6 |
| 20260503072604 | 46 | 349 | 1.0 | 5.0 | 0.00 | 0.01 | 0.00 | 60 | 1010.5 |
| 20260503071604 | 46 | 349 | 2.0 | 4.0 | 0.00 | 0.01 | 0.00 | 59 | 1010.6 |
| 20260503070604 | 46 | 349 | 0.0 | 5.0 | 0.00 | 0.01 | 0.00 | 60 | 1010.6 |
| 20260503054604 | 48 | 349 | 0.0 | 6.0 | 0.00 | 0.01 | 0.00 | 54 | 1010.9 |
| 20260503053604 | 48 | 349 | 1.0 | 5.0 | 0.00 | 0.01 | 0.00 | 53 | 1011.0 |
| 20260503052603 | 48 | 349 | 1.0 | 6.0 | 0.00 | 0.01 | 0.00 | 52 | 1011.2 |
| 20260503051604 | 48 | 347 | 1.0 | 11.0 | 0.00 | 0.01 | 0.00 | 52 | 1011.2 |
| 20260503050604 | 48 | 354 | 2.0 | 8.0 | 0.00 | 0.01 | 0.00 | 51 | 1011.2 |
| 20260503045604 | 49 | 354 | 0.0 | 8.0 | 0.00 | 0.01 | 0.00 | 52 | 1011.2 |
| 20260503044604 | 49 | 359 | 2.0 | 6.0 | 0.00 | 0.01 | 0.00 | 51 | 1011.3 |
| 20260503043604 | 49 | 359 | 1.0 | 5.0 | 0.00 | 0.01 | 0.00 | 50 | 1011.5 |
| 20260503042604 | 49 | 360 | 0.0 | 4.0 | 0.00 | 0.01 | 0.00 | 50 | 1011.5 |
| 20260503041603 | 49 | 359 | 1.0 | 8.0 | 0.00 | 0.01 | 0.00 | 50 | 1011.5 |
| 20260503040604 | 50 | 356 | 2.0 | 8.0 | 0.00 | 0.01 | 0.00 | 49 | 1011.4 |
| 20260503035603 | 50 | 354 | 1.0 | 8.0 | 0.00 | 0.01 | 0.01 | 48 | 1011.4 |
| 20260503034604 | 50 | 349 | 2.0 | 8.0 | 0.00 | 0.01 | 0.01 | 47 | 1011.4 |
| 20260503033603 | 50 | 351 | 4.0 | 9.0 | 0.00 | 0.01 | 0.01 | 47 | 1011.3 |
| 20260503032604 | 51 | 338 | 6.0 | 14.0 | 0.00 | 0.01 | 0.01 | 46 | 1011.2 |
| 20260503031604 | 51 | 351 | 5.0 | 12.0 | 0.00 | 0.01 | 0.01 | 46 | 1011.3 |
| 20260503030625 | 51 | 354 | 4.0 | 10.0 | 0.00 | 0.01 | 0.01 | 45 | 1011.3 |
| 20260503025604 | 51 | 354 | 4.0 | 9.0 | 0.00 | 0.01 | 0.01 | 45 | 1011.3 |
| 20260503024603 | 51 | 353 | 5.0 | 11.0 | 0.00 | 0.01 | 0.01 | 45 | 1011.3 |
| 20260503023604 | 52 | 349 | 2.0 | 9.0 | 0.00 | 0.01 | 0.01 | 45 | 1011.3 |
| 20260503022604 | 52 | 348 | 1.0 | 10.0 | 0.00 | 0.01 | 0.01 | 45 | 1011.3 |
| 20260503021604 | 52 | 341 | 2.0 | 9.0 | 0.00 | 0.01 | 0.01 | 45 | 1011.4 |
| 20260503020604 | 52 | 347 | 4.0 | 6.0 | 0.00 | 0.01 | 0.01 | 45 | 1011.5 |
| 20260503015604 | 51 | 350 | 3.0 | 6.0 | 0.00 | 0.01 | 0.01 | 46 | 1011.7 |
| 20260503014604 | 51 | 349 | 1.0 | 8.0 | 0.00 | 0.01 | 0.01 | 49 | 1011.5 |
| 20260503013604 | 51 | 348 | 2.0 | 4.0 | 0.00 | 0.01 | 0.01 | 48 | 1011.5 |
| 20260503012603 | 51 | 348 | 0.0 | 3.0 | 0.00 | 0.01 | 0.01 | 49 | 1011.5 |
| 20260503011604 | 51 | 349 | 0.0 | 2.0 | 0.00 | 0.01 | 0.01 | 49 | 1011.4 |
| 20260503010604 | 51 | 349 | 0.0 | 9.0 | 0.00 | 0.01 | 0.01 | 50 | 1011.3 |
| 20260503005604 | 51 | 349 | 0.0 | 0.0 | 0.00 | 0.01 | 0.01 | 53 | 1011.2 |
| 20260503004604 | 52 | 349 | 0.0 | 0.0 | 0.00 | 0.01 | 0.01 | 51 | 1011.0 |
| 20260503003625 | 52 | 349 | 0.0 | 0.0 | 0.00 | 0.01 | 0.01 | 50 | 1011.0 |
| 20260503002604 | 53 | 348 | 1.0 | 3.0 | 0.00 | 0.01 | 0.01 | 47 | 1011.0 |
| 20260503001604 | 53 | 348 | 2.0 | 4.0 | 0.00 | 0.01 | 0.01 | 47 | 1010.9 |
| 20260503000604 | 54 | 349 | 0.0 | 3.0 | 0.00 | 0.01 | 0.01 | 46 | 1010.9 |
| 20260502235604 | 54 | 348 | 3.0 | 6.0 | 0.00 | 0.01 | 0.01 | 43 | 1010.8 |
| 20260502234611 | 54 | 349 | 2.0 | 10.0 | 0.00 | 0.01 | 0.01 | 44 | 1010.9 |
| 20260502233604 | 54 | 355 | 0.0 | 3.0 | 0.00 | 0.01 | 0.01 | 45 | 1010.8 |
| 20260502232625 | 55 | 354 | 3.0 | 6.0 | 0.00 | 0.01 | 0.01 | 42 | 1010.7 |
| 20260502231604 | 55 | 354 | 2.0 | 9.0 | 0.00 | 0.01 | 0.01 | 41 | 1010.6 |
| 20260502230604 | 55 | 354 | 4.0 | 6.0 | 0.00 | 0.01 | 0.01 | 41 | 1010.6 |
| 20260502225604 | 56 | 350 | 4.0 | 9.0 | 0.00 | 0.01 | 0.01 | 41 | 1010.6 |
| 20260502224603 | 56 | 354 | 1.0 | 4.0 | 0.00 | 0.01 | 0.01 | 42 | 1010.3 |